This is the latest recevied weather packets stored in our database for station/object K5DLF-13. If no packets are shown the sender has not sent any weather packets the latest 10 day(s).
| Time | Temp. | Humidity | Pressure | Rain* | Wind** | Luminosity | Snow |
|---|---|---|---|---|---|---|---|
| 1777566268 | 29.44° C | 79% | 1007.9 hPa | 0 mm | - | 816 W/m² | - |
| 1777565968 | 29.44° C | 78% | 1007.9 hPa | 0 mm | - | 740 W/m² | - |
| 1777565668 | 28.89° C | 78% | 1008.1 hPa | 0 mm | - | 278 W/m² | - |
| 1777565368 | 28.89° C | 77% | 1008.2 hPa | 0 mm | - | 271 W/m² | - |
| 1777565068 | 28.89° C | 80% | 1008.2 hPa | 0 mm | - | 833 W/m² | - |
| 1777564768 | 28.33° C | 79% | 1008.1 hPa | 0 mm | - | 842 W/m² | - |
| 1777564468 | 28.33° C | 83% | 1008.1 hPa | 0 mm | - | 360 W/m² | - |
| 1777564168 | 27.78° C | 85% | 1008.2 hPa | 0 mm | - | 295 W/m² | - |
| 1777563868 | 27.78° C | 86% | 1008 hPa | 0 mm | - | 846 W/m² | - |
| 1777563568 | 27.22° C | 87% | 1007.8 hPa | 0 mm | - | 740 W/m² | - |
| 1777563268 | 26.67° C | 87% | 1008 hPa | 0 mm | - | 510 W/m² | - |
| 1777562968 | 26.67° C | 87% | 1008.1 hPa | 0 mm | - | 469 W/m² | - |
| 1777562668 | 26.67° C | 88% | 1008 hPa | 0 mm | - | 297 W/m² | - |
| 1777562368 | 26.67° C | 90% | 1008 hPa | 0 mm | - | 279 W/m² | - |
| 1777562068 | 26.11° C | 90% | 1008 hPa | 0 mm | - | 237 W/m² | - |
| 1777561768 | 26.11° C | 92% | 1008.1 hPa | 0 mm | - | 221 W/m² | - |
| 1777561468 | 26.11° C | 93% | 1007.9 hPa | 0 mm | - | 202 W/m² | - |
| 1777561168 | 26.11° C | 95% | 1007.8 hPa | 0 mm | - | 424 W/m² | - |
| 1777560868 | 25.56° C | 95% | 1007.9 hPa | 0 mm | - | 411 W/m² | - |
| 1777560568 | 25.56° C | 95% | 1007.9 hPa | 0 mm | - | 285 W/m² | - |
| 1777560268 | 25.56° C | 95% | 1008.1 hPa | 0 mm | - | 241 W/m² | - |
| 1777559968 | 25° C | 95% | 1008.1 hPa | 0 mm | - | 234 W/m² | - |
| 1777559668 | 25° C | 95% | 1007.8 hPa | 0 mm | - | 227 W/m² | - |
| 1777559368 | 25° C | 96% | 1007.8 hPa | 0 mm | - | 211 W/m² | - |
| 1777559068 | 25° C | 96% | 1007.9 hPa | 0 mm | - | 211 W/m² | - |
* Rain latest hour (hover to see other rain measurements)
** Current wind speed in m/s (hover to see current wind gust speed)